DW1454 Weather Reports


Display with metric or nautical units.
time (UTC)temp
F
wind
direction
speed
MPH
gust
MPH
rain 1hr
in
rain 24hr
in
rain mn
in
humidity
%
barometer
mb
20260505064006 40 0.0 0.0 0.00 0.00 0.00 50 1003.3
20260505063216 40 0.0 0.0 0.00 0.00 0.00 50 1003.4
20260505062006 40 0.0 0.0 0.00 0.00 0.00 50 1003.5
20260505061006 40 0.0 0.0 0.00 0.00 0.00 49 1003.6
20260505060006 41 0.0 0.0 0.00 0.00 0.00 49 1003.7
20260505055005 42 0.0 0.0 0.00 0.00 0.00 49 1003.6
20260505054005 42 0.0 0.0 0.00 0.00 0.00 49 1003.5
20260505053005 43 0.0 0.0 0.00 0.00 0.00 49 1003.7
20260505052216 44 0.0 0.0 0.00 0.00 0.00 48 1004.0
20260505051216 44 0.0 0.0 0.00 0.00 0.00 48 1004.1
20260505041005 48 0.0 0.0 0.00 0.00 0.00 47 1005.1
20260505040215 48 0.0 0.0 0.00 0.00 0.00 48 1005.4
20260505035005 46 0.0 0.0 0.00 0.00 0.00 48 1005.5
20260505034005 46 0.0 0.0 0.00 0.00 0.00 48 1005.9
20260505033005 46 0.0 0.0 0.00 0.00 0.00 49 1006.2
20260505032006 45 0.0 0.0 0.00 0.00 0.00 48 1006.3
20260505031006 45 0.0 0.0 0.00 0.00 0.00 48 1006.7
20260505030006 45 0.0 0.0 0.00 0.00 0.00 48 1006.9
20260505025006 45 0.0 0.0 0.00 0.00 0.00 47 1007.0
20260505024006 46 0.0 0.0 0.00 0.00 0.00 46 1007.2
20260505023005 46 0.0 0.0 0.00 0.00 0.00 46 1007.5
20260505022217 47 0.0 0.0 0.00 0.00 0.00 45 1007.7
20260505021006 47 0.0 0.0 0.00 0.00 0.00 44 1007.8
20260505020007 48 0.0 0.0 0.00 0.00 0.00 42 1008.0
20260505015215 49 0.0 0.0 0.00 0.00 0.00 41 1008.3
20260505014006 50 0.0 0.0 0.00 0.00 0.00 41 1008.5
20260505013006 50 0.0 0.0 0.00 0.00 0.00 40 1008.6
20260505012005 50 0.0 0.0 0.00 0.00 0.00 39 1008.8
20260505011007 51 0.0 0.0 0.00 0.00 0.00 39 1009.0
20260505010006 51 0.0 0.0 0.00 0.00 0.00 39 1009.1
20260505005006 52 0.0 0.0 0.00 0.00 0.00 38 1009.2
20260505004006 52 0.0 0.0 0.00 0.00 0.00 38 1009.4
20260505003006 53 0.0 0.0 0.00 0.00 0.00 39 1009.6
20260505002006 53 0.0 0.0 0.00 0.00 0.00 38 1009.7
20260505001006 52 0.0 0.0 0.00 0.00 0.00 38 1009.9
20260505000007 53 0.0 0.0 0.00 0.00 0.00 38 1010.1
20260504235216 53 0.0 0.0 0.00 0.00 0.00 38 1010.2
20260504234006 53 0.0 0.0 0.00 0.00 0.00 38 1010.4
20260504233216 53 0.0 0.0 0.00 0.00 0.00 38 1010.6
20260504232006 53 0.0 0.0 0.00 0.00 0.00 38 1010.8
20260504231006 53 0.0 0.0 0.00 0.00 0.00 38 1011.0
20260504230006 53 0.0 0.0 0.00 0.00 0.00 38 1011.3
20260504225215 53 0.0 0.0 0.00 0.00 0.00 38 1011.5
20260504224006 53 0.0 0.0 0.00 0.00 0.00 38 1011.6
20260504223005 53 0.0 0.0 0.00 0.00 0.00 38 1011.9
20260504222215 53 0.0 0.0 0.00 0.00 0.00 38 1012.1
20260504221005 53 0.0 0.0 0.00 0.00 0.00 38 1012.3
20260504220006 52 0.0 0.0 0.00 0.00 0.00 39 1012.3
20260504215006 53 0.0 0.0 0.00 0.00 0.00 39 1012.5
20260504214217 53 0.0 0.0 0.00 0.00 0.00 40 1012.6
20260504213006 52 0.0 0.0 0.00 0.00 0.00 40 1012.7
20260504212006 51 0.0 0.0 0.00 0.00 0.00 40 1012.9
20260504211006 52 0.0 0.0 0.00 0.00 0.00 39 1013.0
20260504210007 51 0.0 0.0 0.00 0.00 0.00 39 1013.1
20260504205006 51 0.0 0.0 0.00 0.00 0.00 39 1013.1
20260504204007 51 0.0 0.0 0.00 0.00 0.00 39 1013.3
20260504203216 52 0.0 0.0 0.00 0.00 0.00 40 1013.4
20260504202005 50 0.0 0.0 0.00 0.00 0.00 41 1013.5
20260504201005 51 0.0 0.0 0.00 0.00 0.00 42 1013.8
20260504200005 51 0.0 0.0 0.00 0.00 0.00 43 1014.0
20260504195006 49 0.0 0.0 0.00 0.00 0.00 43 1014.2
20260504194216 49 0.0 0.0 0.00 0.00 0.00 44 1014.4
20260504193006 49 0.0 0.0 0.00 0.00 0.00 44 1014.6
20260504192216 49 0.0 0.0 0.00 0.00 0.00 44 1014.8
20260504191006 49 0.0 0.0 0.00 0.00 0.00 44 1014.9
20260504190006 48 0.0 0.0 0.00 0.00 0.00 44 1014.9
20260504185006 48 0.0 0.0 0.00 0.00 0.00 43 1015.0
20260504184006 48 0.0 0.0 0.00 0.00 0.00 43 1015.1
20260504183006 47 0.0 0.0 0.00 0.00 0.00 44 1015.2
20260504182006 47 0.0 0.0 0.00 0.00 0.00 44 1015.4
20260504181006 47 0.0 0.0 0.00 0.00 0.00 45 1015.5
20260504180006 45 0.0 0.0 0.00 0.00 0.00 47 1015.7
20260504175007 43 0.0 0.0 0.00 0.00 0.00 47 1015.8
20260504174007 42 0.0 0.0 0.00 0.00 0.00 48 1015.9
20260504173005 41 0.0 0.0 0.00 0.00 0.00 48 1015.9
20260504172006 41 0.0 0.0 0.00 0.00 0.00 49 1016.0
20260504171215 40 0.0 0.0 0.00 0.00 0.00 49 1016.2
20260504170216 39 0.0 0.0 0.00 0.00 0.00 50 1016.3
20260504160215 35 0.0 0.0 0.00 0.00 0.00 55 1016.6
20260504151006 32 0.0 0.0 0.00 0.00 0.00 55 1016.7
20260504141216 30 0.0 0.0 0.00 0.00 0.00 57 1016.7
20260504082005 32 0.0 0.0 0.00 0.00 0.00 51 1017.8
20260504081006 32 0.0 0.0 0.00 0.00 0.00 50 1017.8